z/d,0,0,50,50,100,100,200,200,300,300,400,400,500,500,750,750,1000,1000,2000,2000,3000,3000,4000,4000,4700,4700
2016.11.08-01:00,.65,74.84,.75,80.79,.74,82.10,.94,71.33,.97,69.44,.93,71.51,.75,66.53,.63,79.01,.44,70.14,.40,50.33,.19,51.28,.20,36.05,.03,90.00
2016.11.08-02:00,.61,70.32,.70,78.03,.70,79.66,.95,71.31,1.00,70.35,.95,72.21,.80,65.60,.62,77.01,.45,65.92,.42,50.35,.20,52.14,.22,40.25,.04,90.00
2016.11.08-03:00,.61,65.46,.67,73.98,.68,76.28,.96,71.45,1.02,71.15,.97,72.81,.84,64.87,.62,74.37,.46,61.16,.43,50.77,.21,53.13,.23,43.29,.04,90.00
2016.11.08-04:00,.65,64.27,.69,71.04,.69,73.70,.98,71.85,1.03,71.62,.98,73.15,.87,64.39,.62,71.71,.49,57.09,.45,51.59,.21,53.46,.23,44.57,.04,90.00
2016.11.08-05:00,.69,64.13,.72,70.47,.72,72.72,.99,72.26,1.03,71.59,.97,73.11,.89,64.33,.61,69.68,.51,54.62,.46,52.76,.21,52.87,.22,44.08,.04,90.00
2016.11.08-06:00,.72,64.09,.73,71.47,.73,72.77,.99,72.19,1.03,70.82,.95,72.49,.91,64.62,.59,68.52,.54,53.96,.46,54.04,.20,51.10,.21,41.89,.03,90.00
2016.11.08-07:00,.71,64.52,.72,73.02,.72,73.14,.98,71.44,1.02,69.38,.94,71.31,.91,65.17,.58,68.16,.56,54.91,.46,55.41,.19,48.39,.19,38.39,.02,90.00
2016.11.08-08:00,.70,68.54,.69,74.64,.69,73.54,.96,70.51,1.01,68.05,.93,70.30,.92,66.36,.57,68.49,.57,56.99,.46,56.68,.18,44.75,.18,33.70,.02,90.00
2016.11.08-09:00,.67,69.71,.66,76.04,.66,73.73,.95,69.90,1.01,67.43,.92,69.90,.92,68.22,.55,68.74,.57,59.48,.45,57.80,.17,41.02,.17,28.76,.01,90.00
2016.11.08-10:00,.66,66.53,.63,76.93,.64,73.46,.94,69.82,1.01,67.59,.91,70.03,.91,70.33,.53,67.70,.56,61.61,.44,59.03,.18,38.68,.17,25.39,.01,90.00
2016.11.08-11:00,.69,64.35,.60,77.38,.62,72.86,.93,70.49,1.01,68.54,.91,70.64,.90,72.44,.52,64.83,.55,62.87,.43,60.53,.18,38.38,.17,24.80,.01,90.00
2016.11.08-12:00,.71,63.10,.58,76.75,.61,71.57,.94,71.64,1.02,70.01,.91,71.59,.90,74.39,.54,61.14,.55,63.45,.42,62.20,.19,39.84,.18,26.99,.01,90.00
2016.11.08-13:00,.74,60.08,.55,73.57,.60,68.52,.93,72.69,1.03,71.55,.92,72.71,.90,76.14,.57,58.67,.55,64.28,.41,63.83,.20,41.86,.19,30.08,.02,90.00
2016.11.08-14:00,.78,57.66,.54,67.73,.60,63.83,.94,73.41,1.04,73.12,.94,74.01,.90,77.77,.62,58.13,.56,65.68,.39,65.07,.21,44.24,.21,33.46,.02,90.00
2016.11.08-15:00,.78,57.24,.55,61.49,.62,59.44,.95,74.04,1.06,74.87,.96,75.47,.91,79.35,.67,58.83,.57,67.00,.37,65.05,.22,46.65,.22,36.76,.03,90.00
2016.11.08-16:00,.86,58.37,.61,57.54,.68,57.32,.96,74.75,1.07,76.63,.96,76.81,.89,80.72,.71,60.23,.57,68.03,.35,63.43,.22,48.90,.22,39.59,.03,90.00
2016.11.08-17:00,.90,63.18,.71,57.68,.75,58.19,.97,75.54,1.05,78.02,.94,77.49,.85,81.41,.74,62.06,.57,68.98,.34,60.75,.22,51.28,.21,42.09,.04,90.00
2016.11.08-18:00,.96,76.74,.79,61.58,.81,60.85,.96,76.16,1.02,78.61,.91,77.11,.80,80.98,.75,64.12,.57,69.85,.34,57.60,.21,53.35,.20,43.62,.04,90.00
2016.11.08-19:00,.89,85.89,.82,65.62,.84,63.84,.94,76.14,.98,78.20,.88,75.83,.75,79.52,.76,66.82,.57,71.05,.35,54.83,.20,54.76,.18,43.58,.03,90.00
2016.11.08-20:00,.82,83.23,.82,69.33,.85,66.56,.91,75.42,.95,77.10,.86,74.37,.72,77.73,.75,70.38,.55,72.90,.36,53.01,.19,54.65,.16,40.74,.03,90.00
2016.11.08-21:00,.81,86.27,.81,73.59,.86,69.46,.90,74.42,.93,75.96,.85,73.39,.70,76.06,.72,74.32,.53,74.94,.38,52.23,.18,52.78,.14,35.10,.02,90.00
2016.11.08-22:00,.79,88.62,.79,78.17,.86,72.21,.89,73.10,.92,74.86,.84,72.54,.68,73.90,.69,77.50,.50,76.27,.39,52.30,.17,50.21,.14,29.23,.02,90.00
2016.11.08-23:00,.76,89.33,.76,81.86,.85,74.40,.88,71.53,.90,73.72,.83,71.39,.67,70.89,.65,79.30,.47,76.53,.41,53.43,.18,49.28,.15,27.16,.02,90.00
2016.11.08-24:00,.74,91.12,.73,84.92,.84,76.89,.88,71.11,.90,73.65,.84,71.00,.68,68.42,.62,80.16,.45,75.70,.42,54.73,.19,48.20,.16,26.53,.02,90.00
2016.11.09-01:00,.70,93.99,.66,84.67,.81,77.44,.88,70.25,.90,73.31,.85,70.12,.70,65.84,.60,79.68,.44,73.74,.43,56.70,.20,49.20,.19,29.18,.02,90.00
2016.11.09-02:00,.60,93.22,.59,80.73,.78,76.60,.89,69.64,.91,73.21,.87,69.52,.75,64.17,.60,78.45,.44,70.82,.44,58.70,.22,50.78,.21,32.25,.03,90.00
2016.11.09-03:00,.53,98.62,.55,73.97,.76,75.36,.92,69.74,.93,73.40,.90,69.37,.80,63.46,.60,76.59,.46,66.92,.44,60.30,.23,52.60,.23,35.24,.03,90.00
2016.11.09-04:00,.50,100.49,.55,68.81,.77,75.04,.95,70.63,.96,73.56,.94,69.48,.86,63.43,.60,74.28,.47,62.63,.45,61.45,.24,54.34,.24,37.75,.04,90.00
2016.11.09-05:00,.48,96.83,.57,66.11,.77,75.34,.97,71.20,.96,72.80,.97,69.12,.91,63.43,.61,71.87,.50,59.01,.45,62.45,.24,55.80,.24,39.63,.04,90.00
2016.11.09-06:00,.49,98.46,.59,66.92,.78,76.91,.98,71.82,.97,71.78,.99,69.05,.95,64.22,.61,70.27,.53,56.95,.45,63.11,.23,55.76,.24,39.85,.04,90.00
2016.11.09-07:00,.50,99.54,.60,68.54,.77,78.64,.99,71.98,.98,70.55,1.00,69.18,.98,65.56,.60,69.44,.55,56.35,.44,63.48,.22,54.43,.23,38.92,.03,90.00
2016.11.09-08:00,.48,100.73,.58,69.85,.74,79.87,.99,71.87,.99,69.54,1.01,69.73,.99,67.58,.59,69.48,.57,57.27,.43,63.44,.20,51.59,.22,36.91,.03,90.00
2016.11.09-09:00,.43,101.96,.56,68.78,.70,79.42,.97,71.36,.98,68.60,1.00,70.47,.98,69.91,.58,70.00,.58,59.44,.41,63.17,.19,47.88,.21,34.56,.02,90.00
2016.11.09-10:00,.39,102.90,.55,67.19,.66,78.24,.95,71.43,.96,68.38,.98,71.80,.96,72.71,.56,70.14,.58,62.13,.40,62.81,.19,43.80,.20,32.25,.02,90.00
2016.11.09-11:00,.37,103.29,.54,66.07,.64,76.76,.93,72.08,.95,68.64,.96,73.29,.93,75.32,.54,68.64,.58,64.47,.39,63.00,.19,40.91,.19,31.15,.02,90.00
2016.11.09-12:00,.36,105.80,.54,65.17,.62,74.89,.92,73.05,.95,69.16,.94,74.66,.90,77.38,.52,65.53,.57,66.29,.38,64.06,.19,39.84,.19,31.50,.02,90.00
2016.11.09-13:00,.35,109.56,.52,62.94,.61,71.92,.92,74.03,.97,69.91,.94,75.99,.88,79.07,.54,62.40,.56,67.82,.38,65.59,.20,40.34,.20,32.91,.02,90.00
2016.11.09-14:00,.31,114.84,.51,58.65,.60,67.94,.93,75.17,1.00,71.21,.95,77.70,.88,80.90,.57,60.85,.56,69.19,.37,66.60,.21,41.84,.21,35.09,.02,90.00
2016.11.09-15:00,.26,108.37,.52,52.66,.61,62.89,.93,76.13,1.03,72.80,.97,79.55,.88,82.74,.62,60.96,.56,70.47,.36,66.60,.23,44.31,.21,38.20,.03,90.00
2016.11.09-16:00,.27,85.43,.57,48.23,.66,58.90,.94,76.99,1.05,74.64,.98,81.33,.88,84.28,.66,62.12,.57,71.65,.36,65.40,.24,46.92,.22,41.22,.04,90.00
2016.11.09-17:00,.35,74.61,.64,48.17,.73,58.36,.95,77.99,1.06,76.67,.97,82.70,.85,85.04,.70,63.51,.58,72.56,.36,63.40,.25,49.40,.22,43.55,.04,90.00
2016.11.09-18:00,.43,75.90,.71,51.34,.81,60.55,.94,78.71,1.05,78.26,.93,83.01,.81,84.40,.73,64.75,.58,73.15,.37,61.50,.25,51.89,.22,45.16,.04,90.00
2016.11.09-19:00,.50,78.25,.76,56.02,.87,64.25,.93,78.93,1.02,79.21,.88,82.08,.76,82.34,.74,66.30,.57,73.72,.38,60.15,.25,53.90,.20,45.22,.04,90.00
2016.11.09-20:00,.56,79.65,.79,60.79,.90,68.43,.91,78.49,.98,79.49,.83,80.16,.72,79.47,.74,68.71,.56,74.72,.39,59.49,.24,54.69,.19,42.60,.04,90.00
2016.11.09-21:00,.58,82.86,.80,65.17,.91,72.49,.89,77.33,.94,79.13,.80,77.66,.68,76.42,.73,71.89,.54,76.28,.39,59.40,.22,54.06,.18,37.23,.03,90.00
2016.11.09-22:00,.58,87.92,.79,69.41,.90,76.17,.87,75.58,.91,78.38,.77,74.93,.66,73.39,.71,75.31,.51,78.13,.40,59.70,.21,52.51,.17,30.96,.03,90.00
2016.11.09-23:00,.59,93.97,.77,73.67,.88,79.20,.87,73.68,.88,77.47,.75,72.18,.64,70.18,.67,78.21,.48,79.56,.40,60.34,.21,51.09,.17,26.69,.02,90.00
2016.11.09-24:00,.57,99.07,.74,77.23,.86,81.24,.87,72.19,.87,76.84,.76,69.90,.65,67.15,.64,80.14,.45,79.90,.40,61.45,.21,50.40,.18,25.51,.02,90.00
2016.11.10-01:00,.54,99.57,.70,79.00,.82,82.14,.87,71.46,.86,76.88,.77,68.64,.67,65.10,.61,81.11,.43,78.69,.40,62.99,.21,50.44,.19,26.76,.02,90.00
2016.11.10-02:00,.48,95.26,.64,77.87,.78,81.93,.88,71.38,.86,77.51,.80,68.30,.72,64.12,.59,80.97,.42,75.66,.40,64.68,.22,51.33,.21,29.78,.03,90.00
2016.11.10-03:00,.44,87.54,.60,74.01,.74,80.92,.90,71.92,.87,78.27,.84,68.40,.77,63.84,.59,79.57,.42,70.97,.41,66.15,.23,53.03,.23,33.83,.03,90.00
2016.11.10-04:00,.46,77.27,.61,70.96,.73,79.98,.92,73.25,.88,78.67,.89,68.60,.84,64.03,.59,77.14,.44,65.40,.41,67.20,.24,55.03,.24,37.85,.04,90.00
2016.11.10-05:00,.53,72.04,.64,68.70,.73,79.63,.95,74.94,.89,78.33,.94,68.75,.90,64.64,.59,74.42,.47,60.49,.42,67.94,.25,56.62,.25,40.85,.04,90.00
2016.11.10-06:00,.57,70.46,.67,67.59,.74,79.66,.96,76.26,.90,77.04,.98,68.80,.94,65.57,.59,72.08,.51,57.44,.43,68.67,.25,57.39,.25,42.20,.04,90.00
2016.11.10-07:00,.61,70.96,.70,68.24,.75,80.27,.96,77.08,.90,75.13,1.00,69.00,.97,66.92,.60,70.50,.54,56.44,.43,69.38,.25,56.90,.25,41.69,.04,90.00
2016.11.10-08:00,.64,71.19,.71,69.95,.74,81.13,.95,77.33,.89,73.03,1.02,69.48,.99,68.69,.59,69.81,.57,57.15,.42,69.91,.24,55.24,.24,39.97,.04,90.00
2016.11.10-09:00,.65,71.95,.71,71.44,.71,81.52,.91,76.96,.88,71.09,1.01,70.34,.98,70.93,.58,70.07,.59,59.29,.40,70.14,.23,52.55,.23,37.54,.03,90.00
2016.11.10-10:00,.63,72.93,.70,72.37,.67,81.07,.87,76.10,.87,69.57,.99,71.63,.95,73.53,.56,70.65,.59,62.20,.38,70.11,.22,49.40,.22,35.10,.03,90.00
2016.11.10-11:00,.57,74.38,.69,73.22,.63,79.79,.83,74.83,.86,68.40,.97,73.06,.92,75.99,.54,70.31,.59,65.14,.36,70.12,.21,46.79,.21,33.50,.02,90.00
2016.11.10-12:00,.54,74.97,.67,74.58,.60,78.02,.81,73.30,.86,67.50,.94,74.31,.88,77.81,.52,68.31,.58,67.82,.34,70.55,.20,45.32,.20,33.00,.02,90.00
2016.11.10-13:00,.51,75.75,.65,75.35,.58,75.04,.80,71.55,.87,66.83,.92,75.31,.84,78.91,.52,65.39,.57,70.55,.33,71.39,.20,45.08,.20,33.49,.02,90.00
2016.11.10-14:00,.50,73.50,.62,74.22,.56,70.41,.81,70.23,.90,66.83,.92,76.45,.83,79.74,.53,63.24,.57,73.56,.32,71.99,.20,45.68,.20,34.79,.02,90.00
2016.11.10-15:00,.49,67.99,.59,70.20,.56,64.21,.83,69.62,.95,67.66,.94,77.90,.84,80.57,.57,62.51,.56,76.44,.32,71.84,.21,47.24,.21,37.20,.03,90.00
2016.11.10-16:00,.50,60.51,.58,64.11,.58,57.97,.87,69.88,1.00,69.43,.96,79.74,.86,81.54,.61,62.92,.56,78.54,.32,70.63,.23,49.26,.22,40.14,.03,90.00
2016.11.10-17:00,.56,55.07,.60,59.54,.64,54.38,.90,71.05,1.04,72.10,.97,81.76,.87,82.45,.67,63.75,.55,79.25,.33,68.65,.24,51.22,.23,42.77,.04,90.00
2016.11.10-18:00,.64,53.67,.67,57.67,.72,54.49,.93,72.83,1.07,75.17,.96,83.48,.86,83.00,.71,64.78,.54,78.75,.34,66.49,.25,52.65,.23,44.34,.04,90.00
2016.11.10-19:00,.72,54.34,.74,58.50,.80,57.15,.95,74.63,1.07,77.96,.92,84.30,.83,82.82,.74,66.01,.54,77.62,.36,64.85,.26,53.56,.23,44.69,.05,90.00
2016.11.10-20:00,.79,55.91,.81,61.43,.87,61.03,.96,75.92,1.05,80.03,.87,83.77,.78,81.60,.75,67.66,.52,76.43,.37,63.97,.26,53.90,.23,43.56,.04,90.00
2016.11.10-21:00,.83,58.45,.86,65.42,.91,65.25,.95,76.52,1.00,81.33,.81,82.04,.73,79.51,.74,70.11,.50,75.83,.38,63.82,.25,53.41,.21,40.39,.04,90.00
2016.11.10-22:00,.84,61.80,.88,69.52,.93,69.07,.93,76.15,.95,81.73,.75,79.17,.68,76.53,.72,73.16,.49,75.82,.38,64.39,.24,52.41,.20,35.66,.03,90.00
2016.11.10-23:00,.84,66.14,.89,73.59,.93,72.59,.91,75.33,.89,81.51,.71,75.76,.65,72.92,.69,76.45,.46,75.90,.38,65.52,.23,51.33,.19,30.67,.03,90.00
2016.11.10-24:00,.83,70.34,.89,76.84,.92,75.43,.90,74.44,.85,80.79,.69,72.27,.64,69.13,.65,79.75,.43,75.81,.37,67.18,.22,50.61,.19,27.09,.03,90.00
2016.11.11-01:00,.81,72.88,.86,78.70,.90,77.24,.89,73.59,.81,79.57,.69,69.06,.65,65.78,.61,82.71,.41,75.50,.35,69.28,.21,50.53,.19,25.79,.03,90.00
2016.11.11-02:00,.78,73.59,.81,79.05,.85,78.10,.87,73.00,.79,78.20,.71,66.62,.68,63.57,.58,84.68,.40,74.69,.35,71.30,.22,51.10,.20,26.55,.03,90.00
2016.11.11-03:00,.74,73.08,.75,77.76,.80,78.23,.86,73.04,.79,77.10,.75,65.21,.74,62.65,.57,84.98,.41,72.95,.35,72.73,.22,52.70,.21,29.36,.03,90.00
2016.11.11-04:00,.71,72.15,.70,75.26,.76,77.76,.87,73.91,.80,76.26,.81,64.78,.81,62.82,.57,83.47,.43,70.02,.35,73.29,.24,55.34,.23,33.78,.04,90.00
2016.11.11-05:00,.69,70.78,.66,72.27,.73,76.84,.88,75.28,.82,75.27,.88,65.16,.88,63.87,.56,80.76,.46,66.47,.37,73.25,.25,58.22,.24,38.21,.04,90.00
2016.11.11-06:00,.71,70.98,.67,69.90,.72,75.81,.90,76.58,.86,73.82,.95,66.12,.95,65.62,.56,77.57,.48,63.23,.38,73.07,.26,60.55,.25,41.29,.05,90.00
2016.11.11-07:00,.73,77.70,.69,68.87,.73,74.90,.91,77.26,.89,72.08,1.00,67.49,.99,67.83,.55,74.56,.52,61.33,.39,73.18,.27,61.79,.26,42.33,.05,90.00
2016.11.11-08:00,.71,82.98,.72,68.91,.74,74.07,.90,77.06,.91,70.31,1.03,69.08,1.00,70.16,.55,71.83,.54,60.92,.39,73.73,.26,61.89,.26,41.57,.04,90.00
2016.11.11-09:00,.68,87.49,.73,69.61,.74,73.25,.88,76.15,.93,68.94,1.04,70.87,.99,72.49,.54,69.36,.56,61.80,.39,74.75,.25,60.86,.25,39.47,.04,90.00
2016.11.11-10:00,.67,91.50,.73,70.59,.73,72.23,.86,74.79,.93,68.20,1.02,72.87,.97,74.80,.54,67.39,.57,63.70,.37,76.10,.23,58.72,.24,36.53,.03,90.00
2016.11.11-11:00,.67,92.91,.72,71.12,.72,70.90,.83,73.07,.92,67.91,.99,74.94,.92,77.03,.53,65.99,.58,66.33,.34,77.56,.21,55.76,.22,33.63,.03,90.00
2016.11.11-12:00,.68,93.90,.71,71.20,.71,69.26,.81,70.92,.91,67.73,.94,76.70,.87,78.91,.52,64.84,.57,69.48,.31,78.90,.19,52.69,.21,31.79,.02,90.00
2016.11.11-13:00,.66,95.33,.70,71.08,.71,67.46,.80,68.50,.90,67.51,.90,77.73,.83,80.06,.52,63.82,.56,73.17,.28,79.73,.18,50.03,.20,31.21,.02,90.00
2016.11.11-14:00,.60,95.23,.68,70.52,.71,65.64,.80,66.59,.92,67.67,.88,78.24,.80,80.60,.52,63.37,.54,77.40,.27,79.61,.17,48.09,.19,31.81,.02,90.00
2016.11.11-15:00,.52,88.82,.66,68.46,.71,63.51,.83,65.77,.95,68.59,.88,78.67,.79,80.86,.55,63.80,.53,81.56,.26,78.23,.18,47.47,.20,33.81,.02,90.00
2016.11.11-16:00,.49,73.85,.63,64.29,.72,61.20,.87,66.29,.99,70.53,.90,79.52,.81,81.25,.59,64.96,.52,84.70,.26,75.58,.20,48.32,.21,37.04,.03,90.00
2016.11.11-17:00,.51,61.27,.63,58.47,.75,59.13,.91,67.83,1.03,73.30,.92,80.79,.83,81.74,.64,66.24,.51,85.82,.28,72.18,.23,50.26,.23,40.85,.04,90.00
2016.11.11-18:00,.58,52.37,.67,52.79,.80,57.99,.96,69.87,1.07,76.45,.94,82.19,.85,82.15,.70,67.25,.50,84.54,.30,68.89,.26,52.54,.25,44.16,.04,90.00
2016.11.11-19:00,.69,49.13,.74,49.99,.87,58.63,.99,72.22,1.08,79.66,.93,83.37,.84,82.28,.74,68.15,.49,81.36,.32,66.54,.28,54.54,.26,46.03,.05,90.00
2016.11.11-20:00,.79,50.13,.84,50.66,.94,60.86,1.01,74.67,1.06,82.48,.90,83.86,.81,81.81,.76,69.19,.48,77.26,.35,65.43,.30,56.13,.26,46.28,.05,90.00
2016.11.11-21:00,.88,53.00,.93,53.12,.99,63.67,1.01,76.77,1.01,84.39,.84,83.07,.76,80.36,.76,70.67,.48,73.37,.37,65.47,.30,57.41,.25,45.04,.05,90.00
2016.11.11-22:00,.94,56.72,1.00,56.27,1.02,66.34,.99,78.13,.94,84.99,.77,80.69,.71,77.83,.75,73.00,.47,70.68,.37,66.41,.29,58.26,.23,42.12,.05,90.00
2016.11.11-23:00,.96,61.15,1.04,59.70,1.02,68.59,.94,78.40,.86,83.99,.72,76.75,.66,74.42,.72,76.44,.46,69.72,.37,68.04,.27,58.57,.21,37.42,.04,90.00
2016.11.11-24:00,.97,66.03,1.07,63.29,1.02,70.45,.90,77.54,.80,81.36,.69,71.97,.64,70.71,.69,80.88,.45,70.41,.35,70.13,.24,58.40,.20,31.63,.03,90.00
2016.11.12-01:00,.97,70.65,1.08,66.75,1.01,71.94,.87,75.80,.75,77.47,.69,67.43,.64,67.34,.64,85.80,.44,72.28,.33,72.38,.22,57.98,.19,26.65,.03,90.00
2016.11.12-02:00,.97,74.26,1.07,69.67,1.00,73.08,.84,73.65,.73,73.17,.71,64.05,.66,64.75,.60,90.24,.43,74.70,.31,74.56,.20,57.79,.19,24.51,.03,90.00
2016.11.12-03:00,.94,76.82,1.04,71.80,.97,73.88,.82,71.55,.73,69.26,.75,62.16,.70,63.07,.56,92.65,.42,76.49,.31,76.43,.20,58.25,.20,25.70,.03,90.00
2016.11.12-04:00,.89,78.40,.99,73.19,.94,74.45,.81,70.01,.75,66.43,.81,61.85,.75,62.52,.53,91.95,.42,76.46,.31,77.72,.21,59.61,.21,29.54,.03,90.00
2016.11.12-05:00,.85,78.75,.94,73.91,.91,74.81,.83,69.28,.79,64.97,.87,62.95,.82,63.20,.51,88.40,.43,74.29,.32,78.19,.22,61.55,.23,34.63,.04,90.00
2016.11.12-06:00,.81,78.47,.90,74.10,.89,74.98,.86,69.33,.86,64.86,.94,65.17,.89,65.07,.50,83.39,.45,70.88,.33,77.79,.24,63.07,.25,39.05,.05,90.00
2016.11.12-07:00,.79,78.37,.87,74.01,.89,75.01,.90,69.79,.93,65.76,1.01,68.02,.95,67.84,.50,78.57,.48,67.82,.34,76.99,.25,63.55,.26,41.52,.05,90.00
2016.11.12-08:00,.77,78.40,.86,73.63,.90,74.74,.94,70.12,.99,67.06,1.05,70.92,.99,70.96,.51,74.64,.50,66.05,.35,76.41,.26,62.98,.27,41.91,.05,90.00
2016.11.12-09:00,.76,78.14,.86,72.76,.91,74.13,.96,70.06,1.03,68.38,1.06,73.56,.99,74.02,.51,71.47,.53,65.63,.35,76.49,.26,61.63,.27,40.68,.04,90.00
2016.11.12-10:00,.75,77.57,.86,71.46,.92,73.36,.98,69.77,1.04,69.66,1.05,75.92,.96,76.83,.51,68.61,.54,66.26,.33,77.39,.24,59.73,.26,38.37,.04,90.00
2016.11.12-11:00,.73,77.44,.88,69.96,.93,72.70,.98,69.46,1.04,70.92,1.01,78.12,.91,79.45,.51,66.08,.54,67.87,.31,78.85,.22,57.25,.24,35.32,.03,90.00
2016.11.12-12:00,.72,76.42,.89,68.45,.93,72.09,.98,69.09,1.02,72.10,.96,80.10,.86,81.88,.50,64.28,.54,70.55,.28,80.46,.20,54.37,.22,32.21,.02,90.00
2016.11.12-13:00,.71,74.96,.91,67.14,.92,71.35,.98,68.52,1.00,72.94,.91,81.45,.80,83.66,.50,63.11,.52,74.23,.25,81.53,.18,51.77,.21,30.33,.02,90.00
2016.11.12-14:00,.72,73.24,.92,66.45,.91,70.57,.98,68.05,.98,73.44,.86,81.80,.74,84.14,.50,62.06,.50,78.57,.22,81.26,.17,50.59,.19,31.00,.02,90.00
2016.11.12-15:00,.77,70.54,.92,66.23,.90,69.72,1.00,68.19,.97,73.89,.82,81.25,.71,83.08,.51,61.06,.48,83.01,.21,79.30,.17,51.38,.19,34.41,.02,90.00
2016.11.12-16:00,.80,68.81,.92,65.85,.89,68.63,1.02,69.33,.97,74.80,.81,80.49,.70,81.19,.54,60.79,.46,86.66,.22,76.06,.19,53.18,.19,38.78,.02,90.00
2016.11.12-17:00,.84,66.95,.93,64.77,.91,67.29,1.06,71.50,.99,76.53,.82,80.28,.72,79.66,.60,61.77,.45,88.41,.24,72.54,.21,55.03,.21,42.45,.03,90.00
2016.11.12-18:00,.89,64.87,.97,63.35,.95,65.99,1.10,74.32,1.01,78.88,.84,80.62,.75,78.90,.66,63.42,.45,87.35,.27,69.50,.25,56.65,.23,44.92,.04,90.00
2016.11.12-19:00,.97,63.57,1.03,62.45,1.01,65.31,1.14,77.38,1.03,81.44,.85,81.07,.78,78.60,.72,65.13,.44,83.47,.30,67.26,.28,58.20,.25,46.47,.05,90.00
2016.11.12-20:00,1.05,63.72,1.10,62.71,1.09,65.54,1.16,80.30,1.04,83.68,.85,81.06,.79,78.33,.76,66.93,.44,77.76,.33,65.83,.30,59.63,.27,47.13,.05,90.00
2016.11.12-21:00,1.14,65.27,1.18,64.24,1.17,66.62,1.17,82.71,1.02,85.11,.83,80.10,.79,77.68,.79,69.10,.45,71.83,.35,65.19,.31,60.79,.27,46.56,.05,90.00
2016.11.12-22:00,1.21,67.91,1.24,66.80,1.23,68.21,1.14,84.24,.97,85.28,.80,77.78,.76,76.32,.79,71.87,.45,67.14,.37,65.42,.31,61.64,.26,44.46,.05,90.00
2016.11.12-23:00,1.26,71.32,1.29,70.10,1.27,70.07,1.08,84.61,.90,83.83,.76,73.94,.73,74.02,.77,75.46,.46,64.50,.36,66.55,.29,62.14,.24,40.54,.05,90.00
2016.11.12-24:00,1.29,75.05,1.31,73.81,1.29,72.12,1.02,83.80,.83,80.60,.74,69.09,.70,70.98,.73,80.12,.45,64.08,.35,68.50,.25,62.20,.21,34.65,.04,90.00
2016.11.13-01:00,1.30,78.66,1.32,77.41,1.29,74.24,.96,82.04,.78,75.87,.74,64.48,.68,67.87,.68,85.70,.45,65.52,.32,70.92,.22,61.67,.19,27.46,.03,90.00
2016.11.13-02:00,1.28,81.95,1.30,80.61,1.28,76.34,.91,79.78,.77,70.81,.77,61.33,.69,65.35,.62,91.27,.43,68.02,.30,73.58,.19,60.74,.18,21.52,.02,90.00
2016.11.13-03:00,1.23,84.95,1.25,83.48,1.25,78.42,.88,77.42,.78,66.69,.81,60.11,.71,63.82,.56,95.32,.42,70.72,.28,76.28,.17,59.80,.18,19.52,.02,90.00
2016.11.13-04:00,1.16,87.59,1.17,85.97,1.21,80.38,.86,75.27,.81,64.16,.87,60.77,.76,63.57,.51,96.27,.42,72.87,.27,78.63,.17,59.19,.19,21.79,.02,90.00
2016.11.13-05:00,1.07,89.61,1.08,87.90,1.16,82.09,.86,73.56,.86,63.31,.93,62.93,.82,64.65,.47,93.15,.43,73.83,.27,80.07,.18,59.33,.21,26.95,.03,90.00
2016.11.13-06:00,.99,90.71,1.01,88.96,1.12,83.37,.88,72.50,.92,63.87,1.00,66.09,.88,66.73,.45,86.48,.45,73.29,.28,80.09,.20,60.05,.24,33.17,.04,90.00
2016.11.13-07:00,.93,90.54,.94,88.82,1.09,84.02,.92,71.96,.99,65.46,1.05,69.76,.93,69.40,.45,78.24,.47,71.66,.30,78.95,.23,60.93,.26,38.83,.04,90.00
2016.11.13-08:00,.89,88.86,.91,87.23,1.07,83.82,.96,71.53,1.06,67.64,1.08,73.48,.96,72.35,.47,70.81,.49,69.79,.31,77.41,.25,61.64,.28,42.93,.05,90.00
2016.11.13-09:00,.88,86.01,.89,84.47,1.06,82.84,1.00,70.96,1.12,69.97,1.10,76.89,.97,75.31,.49,65.49,.51,68.38,.31,76.11,.27,62.01,.29,45.23,.05,90.00
2016.11.13-10:00,.86,81.96,.89,81.24,1.06,81.43,1.04,70.26,1.15,72.20,1.08,79.85,.95,78.13,.52,62.22,.53,67.78,.31,75.47,.26,62.10,.28,45.84,.04,90.00
2016.11.13-11:00,.86,78.41,.90,78.11,1.05,79.85,1.06,69.58,1.15,74.29,1.04,82.40,.91,80.74,.53,60.44,.53,68.14,.29,75.52,.24,61.72,.25,44.63,.03,90.00
2016.11.13-12:00,.86,75.65,.91,75.46,1.04,78.28,1.08,69.09,1.13,76.32,.97,84.58,.86,83.12,.55,59.98,.53,69.90,.26,76.12,.21,60.69,.22,41.47,.02,90.00
2016.11.13-13:00,.86,73.85,.93,73.52,1.02,76.76,1.10,68.90,1.10,78.17,.91,86.12,.80,84.90,.55,60.57,.52,73.28,.23,76.64,.18,58.62,.19,36.39,.01,90.00
2016.11.13-14:00,.83,73.12,.95,72.49,1.01,75.44,1.11,69.04,1.07,79.50,.85,86.47,.74,85.38,.55,61.72,.51,78.21,.21,76.48,.16,55.92,.16,30.99,.01,90.00
2016.11.13-15:00,.83,73.06,.95,72.28,1.00,74.42,1.13,69.65,1.04,80.11,.79,85.13,.70,83.81,.55,62.86,.48,84.09,.19,75.22,.15,53.94,.15,28.21,.01,90.00
2016.11.13-16:00,.87,73.05,.94,72.26,.98,73.48,1.15,70.78,1.02,80.13,.76,82.19,.68,80.27,.56,63.57,.45,89.62,.20,73.30,.15,54.21,.15,30.19,.01,90.00
2016.11.13-17:00,.89,72.64,.93,71.83,.98,72.50,1.17,72.62,1.01,80.15,.76,78.68,.69,76.23,.59,64.00,.42,93.03,.22,71.49,.18,56.26,.16,35.52,.02,90.00
2016.11.13-18:00,.93,71.57,.95,70.89,1.01,71.70,1.21,75.24,1.03,80.78,.79,75.87,.74,73.34,.64,64.65,.39,92.42,.25,69.87,.21,58.32,.19,40.57,.03,90.00
2016.11.13-19:00,.98,70.29,1.00,69.88,1.06,71.25,1.25,78.26,1.06,82.11,.83,74.19,.80,72.02,.70,65.61,.38,86.93,.28,68.35,.25,59.98,.22,43.98,.04,90.00
2016.11.13-20:00,1.06,69.72,1.08,69.61,1.13,71.40,1.27,81.28,1.07,83.84,.87,73.38,.85,71.83,.75,66.81,.38,77.87,.31,66.82,.29,61.37,.25,45.95,.05,90.00
2016.11.13-21:00,1.15,70.43,1.16,70.56,1.20,72.16,1.27,83.91,1.05,85.35,.90,72.90,.87,72.20,.80,68.38,.40,68.44,.34,65.41,.31,62.58,.27,46.67,.06,90.00
2016.11.13-22:00,1.23,72.24,1.24,72.48,1.25,73.18,1.23,85.66,1.01,85.88,.91,72.18,.88,72.51,.82,70.47,.44,61.35,.35,64.39,.31,63.64,.27,46.13,.06,90.00
2016.11.13-23:00,1.28,74.82,1.29,75.03,1.28,74.29,1.18,86.16,.95,84.83,.91,70.91,.87,72.44,.82,73.37,.47,57.67,.36,64.08,.30,64.43,.26,43.83,.06,90.00
2016.11.13-24:00,1.30,77.74,1.30,77.92,1.28,75.45,1.10,85.27,.87,81.83,.90,69.17,.84,71.93,.79,77.30,.49,57.17,.35,64.71,.27,64.89,.23,39.25,.05,90.00
2016.11.14-01:00,1.29,80.64,1.30,80.90,1.27,76.78,1.03,83.33,.82,77.15,.90,67.56,.82,71.31,.75,82.23,.50,58.92,.32,66.08,.22,64.84,.20,32.02,.03,90.00
2016.11.14-02:00,1.26,83.51,1.26,83.88,1.24,78.42,.99,81.10,.80,72.04,.91,66.84,.81,71.06,.69,87.72,.50,61.94,.29,68.05,.18,64.09,.18,23.12,.02,90.00
2016.11.14-03:00,1.20,86.29,1.20,86.81,1.20,80.26,.95,78.92,.81,67.72,.93,67.05,.80,71.12,.63,92.75,.48,65.50,.27,70.74,.15,62.61,.17,16.29,.01,90.00
2016.11.14-04:00,1.11,88.90,1.12,89.66,1.15,82.04,.93,76.74,.84,64.53,.96,67.87,.81,71.30,.56,96.11,.47,69.26,.26,74.10,.13,60.77,.17,15.26,.01,90.00
2016.11.14-05:00,1.01,90.99,1.03,92.10,1.09,83.46,.92,74.56,.89,62.51,.99,69.05,.83,71.54,.49,96.35,.45,72.71,.25,77.46,.14,59.79,.19,20.45,.01,90.00
2016.11.14-06:00,.93,92.11,.94,93.76,1.04,84.44,.93,72.94,.95,61.98,1.02,70.70,.86,72.05,.44,92.06,.45,74.85,.26,79.63,.16,60.04,.22,28.73,.02,90.00
2016.11.14-07:00,.86,92.01,.88,94.37,1.01,85.09,.96,72.36,1.01,63.18,1.06,72.97,.89,73.04,.42,83.26,.46,74.88,.27,79.83,.20,60.71,.24,36.79,.03,90.00
2016.11.14-08:00,.82,89.84,.85,93.88,1.00,85.44,1.01,72.67,1.08,65.74,1.09,75.75,.93,74.50,.44,73.17,.47,73.26,.28,78.39,.22,61.32,.27,43.13,.04,90.00
2016.11.14-09:00,.81,86.93,.83,92.52,1.01,85.54,1.05,73.28,1.14,68.92,1.11,78.68,.95,76.22,.49,65.41,.50,71.23,.28,76.06,.24,61.62,.28,47.43,.04,90.00
2016.11.14-10:00,.81,81.27,.82,90.52,1.00,85.28,1.08,73.64,1.18,72.00,1.11,81.39,.95,78.01,.54,61.02,.52,69.88,.28,73.51,.25,61.45,.27,49.74,.04,90.00
2016.11.14-11:00,.85,73.89,.82,88.15,.99,84.50,1.10,73.53,1.19,74.54,1.07,83.72,.93,79.89,.58,59.59,.53,69.86,.27,71.17,.24,60.75,.25,50.10,.04,90.00
2016.11.14-12:00,.91,67.43,.80,85.50,.96,83.10,1.10,72.97,1.17,76.47,1.02,85.72,.89,81.91,.60,60.39,.53,71.34,.24,69.06,.21,59.37,.21,48.17,.03,90.00
2016.11.14-13:00,.99,63.58,.78,82.77,.92,81.22,1.11,72.22,1.14,77.89,.96,87.29,.84,83.84,.61,62.75,.52,74.20,.22,66.95,.18,57.13,.17,43.06,.02,90.00
2016.11.14-14:00,1.06,62.76,.77,80.47,.90,79.31,1.12,71.60,1.11,78.91,.90,88.05,.79,85.12,.61,65.85,.50,78.13,.19,64.85,.15,54.27,.13,33.65,.00,90.00
2016.11.14-15:00,1.10,64.16,.76,78.93,.88,77.76,1.13,71.36,1.08,79.47,.83,87.52,.74,85.00,.59,68.86,.47,82.84,.18,63.52,.12,52.00,.10,21.47,.00,270.00
2016.11.14-16:00,1.09,67.31,.76,78.04,.87,76.78,1.15,71.77,1.05,79.61,.78,85.29,.69,82.80,.56,70.99,.43,87.90,.18,63.87,.12,52.29,.10,14.02,.00,270.00